| time (UTC) | temp C | wind direction | speed KPH | gust KPH | rain 1hr cm | rain 24hr cm | rain mn cm | humidity % | barometer mb |
| 20260903135225 | 28 | 95 | 0.0 | 3.2 | 0.00 | 0.00 | 0.00 | 61 | 1012.0 |
| 20260903134325 | 28 | 95 | 0.0 | 3.2 | 0.00 | 0.00 | 0.00 | 61 | 1011.8 |
| 20260903133425 | 28 | 95 | 1.6 | 3.2 | 0.00 | 0.00 | 0.00 | 61 | 1011.7 |
| 20260903132525 | 28 | 96 | 1.6 | 4.8 | 0.00 | 0.00 | 0.00 | 60 | 1011.5 |
| 20260903131625 | 28 | 96 | 1.6 | 6.4 | 0.00 | 0.00 | 0.00 | 60 | 1011.5 |
| 20260903130725 | 28 | 97 | 0.0 | 6.4 | 0.00 | 0.00 | 0.00 | 59 | 1011.4 |
| 20260903124925 | 28 | 98 | 3.2 | 6.4 | 0.00 | 0.00 | 0.00 | 58 | 1011.2 |
| 20260903124025 | 28 | 103 | 3.2 | 6.4 | 0.00 | 0.00 | 0.00 | 57 | 1011.2 |
| 20260903123125 | 28 | 111 | 0.0 | 9.7 | 0.00 | 0.00 | 0.00 | 57 | 1011.1 |
| 20260903122225 | 28 | 119 | 1.6 | 4.8 | 0.00 | 0.00 | 0.00 | 57 | 1011.0 |
| 20260903121325 | 28 | 120 | 0.0 | 6.4 | 0.00 | 0.00 | 0.00 | 57 | 1010.9 |
| 20260903120425 | 28 | 122 | 0.0 | 1.6 | 0.00 | 0.00 | 0.00 | 56 | 1010.8 |
| 20260903115524 | 28 | 122 | 0.0 | 1.6 | 0.00 | 0.00 | 0.00 | 55 | 1010.7 |
| 20260903114624 | 28 | 122 | 0.0 | 4.8 | 0.00 | 0.00 | 0.00 | 55 | 1010.7 |
| 20260903113724 | 28 | 122 | 0.0 | 1.6 | 0.00 | 0.00 | 0.00 | 55 | 1010.6 |
| 20260903111925 | 29 | 122 | 1.6 | 4.8 | 0.00 | 0.00 | 0.00 | 54 | 1010.6 |
| 20260903111024 | 29 | 122 | 1.6 | 3.2 | 0.00 | 0.00 | 0.00 | 54 | 1010.5 |
| 20260903110125 | 29 | 123 | 0.0 | 3.2 | 0.00 | 0.00 | 0.00 | 54 | 1010.5 |
| 20260903105225 | 28 | 0 | 0.0 | 0.0 | 0.00 | 0.00 | 0.00 | 54 | 1010.5 |
| 20260903103424 | 29 | 123 | 0.0 | 3.2 | 0.00 | 0.00 | 0.00 | 52 | 1010.4 |
| 20260903102524 | 29 | 122 | 0.0 | 1.6 | 0.00 | 0.00 | 0.00 | 52 | 1010.4 |
| 20260903101624 | 29 | 122 | 0.0 | 1.6 | 0.00 | 0.00 | 0.00 | 51 | 1010.3 |
| 20260903100724 | 30 | 123 | 1.6 | 4.8 | 0.00 | 0.00 | 0.00 | 51 | 1010.4 |
| 20260903095824 | 29 | 127 | 0.0 | 4.8 | 0.00 | 0.00 | 0.00 | 51 | 1010.5 |
| 20260903094024 | 29 | 163 | 0.0 | 3.2 | 0.00 | 0.00 | 0.00 | 52 | 1010.5 |
| 20260903091324 | 30 | 164 | 0.0 | 3.2 | 0.00 | 0.00 | 0.00 | 51 | 1010.4 |
| 20260903090424 | 30 | 164 | 0.0 | 1.6 | 0.00 | 0.00 | 0.00 | 51 | 1010.3 |
| 20260903085524 | 30 | 164 | 0.0 | 6.4 | 0.00 | 0.00 | 0.00 | 50 | 1010.2 |
| 20260903084624 | 30 | 163 | 0.0 | 1.6 | 0.00 | 0.00 | 0.00 | 50 | 1010.3 |
| 20260903081924 | 31 | 163 | 0.0 | 6.4 | 0.00 | 0.00 | 0.00 | 49 | 1010.3 |
| 20260903081024 | 31 | 162 | 0.0 | 6.4 | 0.00 | 0.00 | 0.00 | 48 | 1010.3 |
| 20260903080124 | 31 | 162 | 0.0 | 1.6 | 0.00 | 0.00 | 0.00 | 48 | 1010.4 |
| 20260903075224 | 31 | 161 | 1.6 | 6.4 | 0.00 | 0.00 | 0.00 | 47 | 1010.3 |
| 20260903074324 | 31 | 161 | 1.6 | 3.2 | 0.00 | 0.00 | 0.00 | 47 | 1010.3 |
| 20260903073424 | 32 | 161 | 0.0 | 6.4 | 0.00 | 0.00 | 0.00 | 46 | 1010.4 |
| 20260903072524 | 32 | 161 | 1.6 | 3.2 | 0.00 | 0.00 | 0.00 | 44 | 1010.3 |
| 20260903071624 | 32 | 162 | 1.6 | 6.4 | 0.00 | 0.00 | 0.00 | 40 | 1010.3 |
| 20260903070724 | 32 | 184 | 1.6 | 6.4 | 0.00 | 0.00 | 0.00 | 34 | 1010.3 |
| 20260903065824 | 32 | 286 | 3.2 | 6.4 | 0.00 | 0.00 | 0.00 | 27 | 1010.2 |
| 20260903064924 | 33 | 284 | 3.2 | 9.7 | 0.00 | 0.00 | 0.00 | 27 | 1010.0 |
| 20260903064024 | 33 | 272 | 3.2 | 11.3 | 0.00 | 0.00 | 0.00 | 27 | 1010.0 |
| 20260903063124 | 33 | 276 | 3.2 | 11.3 | 0.00 | 0.00 | 0.00 | 27 | 1009.9 |
| 20260903062224 | 33 | 273 | 4.8 | 6.4 | 0.00 | 0.00 | 0.00 | 27 | 1009.9 |
| 20260903061324 | 33 | 267 | 6.4 | 11.3 | 0.00 | 0.00 | 0.00 | 28 | 1010.0 |
| 20260903060424 | 33 | 263 | 6.4 | 12.9 | 0.00 | 0.00 | 0.00 | 29 | 1010.0 |
| 20260903055524 | 33 | 262 | 4.8 | 12.9 | 0.00 | 0.00 | 0.00 | 32 | 1009.9 |
| 20260903054624 | 33 | 262 | 6.4 | 12.9 | 0.00 | 0.00 | 0.00 | 35 | 1009.9 |
| 20260903052824 | 33 | 274 | 1.6 | 4.8 | 0.00 | 0.00 | 0.00 | 39 | 1010.1 |
| 20260903051924 | 33 | 272 | 1.6 | 4.8 | 0.00 | 0.00 | 0.00 | 38 | 1010.0 |
| 20260903051024 | 34 | 269 | 3.2 | 6.4 | 0.00 | 0.00 | 0.00 | 37 | 1010.0 |
| 20260903050124 | 34 | 270 | 3.2 | 6.4 | 0.00 | 0.00 | 0.00 | 37 | 1010.0 |
| 20260903045224 | 34 | 269 | 3.2 | 6.4 | 0.00 | 0.00 | 0.00 | 37 | 1010.0 |
| 20260903044324 | 34 | 259 | 3.2 | 11.3 | 0.00 | 0.00 | 0.00 | 37 | 1010.0 |
| 20260903043424 | 35 | 272 | 4.8 | 9.7 | 0.00 | 0.00 | 0.00 | 37 | 1010.0 |
| 20260903041624 | 35 | 257 | 4.8 | 11.3 | 0.00 | 0.00 | 0.00 | 36 | 1009.9 |
| 20260903035824 | 35 | 272 | 4.8 | 12.9 | 0.00 | 0.00 | 0.00 | 36 | 1009.8 |
| 20260903034024 | 35 | 275 | 6.4 | 12.9 | 0.00 | 0.00 | 0.00 | 34 | 1009.5 |
| 20260903033124 | 35 | 272 | 4.8 | 12.9 | 0.00 | 0.00 | 0.00 | 34 | 1009.4 |
| 20260903032224 | 35 | 273 | 3.2 | 11.3 | 0.00 | 0.00 | 0.00 | 33 | 1009.3 |
| 20260903031324 | 35 | 282 | 4.8 | 6.4 | 0.00 | 0.00 | 0.00 | 33 | 1009.3 |
| 20260903030424 | 35 | 273 | 6.4 | 11.3 | 0.00 | 0.00 | 0.00 | 32 | 1009.3 |
| 20260903025524 | 36 | 264 | 6.4 | 14.5 | 0.00 | 0.00 | 0.00 | 32 | 1009.2 |
| 20260903023724 | 36 | 266 | 8.0 | 14.5 | 0.00 | 0.00 | 0.00 | 32 | 1009.0 |
| 20260903022824 | 36 | 270 | 9.7 | 14.5 | 0.00 | 0.00 | 0.00 | 31 | 1009.0 |
| 20260903021924 | 36 | 268 | 8.0 | 17.7 | 0.00 | 0.00 | 0.00 | 31 | 1008.9 |
| 20260903021024 | 36 | 270 | 8.0 | 14.5 | 0.00 | 0.00 | 0.00 | 32 | 1008.7 |
| 20260903020124 | 36 | 277 | 8.0 | 14.5 | 0.00 | 0.00 | 0.00 | 32 | 1008.6 |
| 20260903015224 | 36 | 286 | 9.7 | 14.5 | 0.00 | 0.00 | 0.00 | 32 | 1008.6 |
| 20260903013424 | 37 | 266 | 8.0 | 19.3 | 0.00 | 0.00 | 0.00 | 31 | 1008.5 |
| 20260903011624 | 37 | 294 | 11.3 | 20.9 | 0.00 | 0.00 | 0.00 | 30 | 1008.4 |
| 20260903010724 | 37 | 282 | 11.3 | 17.7 | 0.00 | 0.00 | 0.00 | 30 | 1008.5 |
| 20260903005824 | 38 | 276 | 8.0 | 20.9 | 0.00 | 0.00 | 0.00 | 29 | 1008.4 |
| 20260903004924 | 37 | 291 | 9.7 | 19.3 | 0.00 | 0.00 | 0.00 | 30 | 1008.4 |
| 20260903004024 | 38 | 298 | 8.0 | 19.3 | 0.00 | 0.00 | 0.00 | 29 | 1008.4 |
| 20260903003124 | 38 | 265 | 9.7 | 17.7 | 0.00 | 0.00 | 0.00 | 28 | 1008.5 |
| 20260903002224 | 38 | 276 | 11.3 | 19.3 | 0.00 | 0.00 | 0.00 | 28 | 1008.5 |
| 20260903000424 | 39 | 262 | 8.0 | 19.3 | 0.00 | 0.00 | 0.00 | 27 | 1008.6 |
| 20260902235524 | 39 | 281 | 9.7 | 19.3 | 0.00 | 0.00 | 0.00 | 27 | 1008.7 |
| 20260902234624 | 39 | 253 | 6.4 | 19.3 | 0.00 | 0.00 | 0.00 | 27 | 1008.7 |
| 20260902233723 | 39 | 277 | 4.8 | 16.1 | 0.00 | 0.00 | 0.00 | 27 | 1008.8 |
| 20260902232824 | 39 | 273 | 9.7 | 17.7 | 0.00 | 0.00 | 0.00 | 26 | 1008.9 |
| 20260902231924 | 39 | 268 | 6.4 | 19.3 | 0.00 | 0.00 | 0.00 | 26 | 1009.1 |
| 20260902231023 | 40 | 256 | 8.0 | 17.7 | 0.00 | 0.00 | 0.00 | 25 | 1009.2 |
| 20260902230123 | 39 | 270 | 6.4 | 22.5 | 0.00 | 0.00 | 0.00 | 26 | 1009.3 |
| 20260902223424 | 39 | 246 | 8.0 | 17.7 | 0.00 | 0.00 | 0.00 | 25 | 1009.6 |
| 20260902221623 | 40 | 285 | 3.2 | 20.9 | 0.00 | 0.00 | 0.00 | 25 | 1009.9 |
| 20260902220724 | 39 | 300 | 4.8 | 6.4 | 0.00 | 0.00 | 0.00 | 26 | 1009.8 |
| 20260902215824 | 39 | 260 | 8.0 | 11.3 | 0.00 | 0.00 | 0.00 | 26 | 1010.0 |
| 20260902214923 | 40 | 288 | 9.7 | 19.3 | 0.00 | 0.00 | 0.00 | 25 | 1010.2 |
| 20260902214023 | 40 | 283 | 11.3 | 20.9 | 0.00 | 0.00 | 0.00 | 24 | 1010.2 |
| 20260902213123 | 40 | 259 | 9.7 | 22.5 | 0.00 | 0.00 | 0.00 | 24 | 1010.2 |
| 20260902212224 | 40 | 184 | 8.0 | 16.1 | 0.00 | 0.00 | 0.00 | 25 | 1010.4 |
| 20260902210423 | 40 | 267 | 8.0 | 16.1 | 0.00 | 0.00 | 0.00 | 26 | 1010.6 |
| 20260902205523 | 40 | 191 | 9.7 | 17.7 | 0.00 | 0.00 | 0.00 | 26 | 1010.9 |
| 20260902204623 | 39 | 193 | 6.4 | 19.3 | 0.00 | 0.00 | 0.00 | 27 | 1011.0 |
| 20260902203723 | 39 | 257 | 6.4 | 14.5 | 0.00 | 0.00 | 0.00 | 27 | 1011.1 |
| 20260902202823 | 40 | 254 | 6.4 | 17.7 | 0.00 | 0.00 | 0.00 | 27 | 1011.3 |
| 20260902201924 | 38 | 257 | 6.4 | 16.1 | 0.00 | 0.00 | 0.00 | 28 | 1011.5 |
| 20260902201023 | 39 | 290 | 6.4 | 16.1 | 0.00 | 0.00 | 0.00 | 27 | 1011.6 |
| 20260902200123 | 38 | 218 | 8.0 | 16.1 | 0.00 | 0.00 | 0.00 | 28 | 1011.9 |
| 20260902195223 | 38 | 178 | 8.0 | 19.3 | 0.00 | 0.00 | 0.00 | 28 | 1012.0 |
| 20260902194323 | 39 | 215 | 4.8 | 16.1 | 0.00 | 0.00 | 0.00 | 27 | 1012.1 |
| 20260902193423 | 38 | 151 | 4.8 | 16.1 | 0.00 | 0.00 | 0.00 | 30 | 1012.2 |
| 20260902192523 | 38 | 169 | 6.4 | 16.1 | 0.00 | 0.00 | 0.00 | 30 | 1012.4 |
| 20260902191623 | 38 | 243 | 8.0 | 16.1 | 0.00 | 0.00 | 0.00 | 29 | 1012.5 |
| 20260902185823 | 37 | 159 | 8.0 | 17.7 | 0.00 | 0.00 | 0.00 | 32 | 1012.8 |
| 20260902184923 | 37 | 194 | 8.0 | 17.7 | 0.00 | 0.00 | 0.00 | 30 | 1013.0 |
| 20260902184023 | 37 | 175 | 6.4 | 22.5 | 0.00 | 0.00 | 0.00 | 30 | 1013.1 |
| 20260902183123 | 37 | 206 | 9.7 | 16.1 | 0.00 | 0.00 | 0.00 | 30 | 1013.2 |
| 20260902182223 | 37 | 176 | 9.7 | 27.4 | 0.00 | 0.00 | 0.00 | 31 | 1013.2 |
| 20260902181323 | 37 | 197 | 8.0 | 17.7 | 0.00 | 0.00 | 0.00 | 30 | 1013.4 |
| 20260902180423 | 36 | 184 | 8.0 | 19.3 | 0.00 | 0.00 | 0.00 | 32 | 1013.4 |
| 20260902174623 | 36 | 188 | 6.4 | 17.7 | 0.00 | 0.00 | 0.00 | 34 | 1013.5 |
| 20260902173723 | 36 | 173 | 6.4 | 20.9 | 0.00 | 0.00 | 0.00 | 31 | 1013.6 |
| 20260902172823 | 36 | 186 | 4.8 | 24.1 | 0.00 | 0.00 | 0.00 | 31 | 1013.6 |
| 20260902171923 | 35 | 189 | 6.4 | 12.9 | 0.00 | 0.00 | 0.00 | 37 | 1013.6 |
| 20260902171023 | 35 | 205 | 4.8 | 14.5 | 0.00 | 0.00 | 0.00 | 38 | 1013.6 |
| 20260902170123 | 35 | 182 | 3.2 | 12.9 | 0.00 | 0.00 | 0.00 | 39 | 1013.5 |
| 20260902165223 | 35 | 182 | 4.8 | 11.3 | 0.00 | 0.00 | 0.00 | 41 | 1013.6 |
| 20260902163423 | 33 | 194 | 4.8 | 11.3 | 0.00 | 0.00 | 0.00 | 46 | 1013.7 |
| 20260902162523 | 33 | 174 | 3.2 | 14.5 | 0.00 | 0.00 | 0.00 | 45 | 1013.7 |
| 20260902160723 | 33 | 173 | 4.8 | 12.9 | 0.00 | 0.00 | 0.00 | 49 | 1013.7 |
| 20260902155823 | 32 | 155 | 6.4 | 14.5 | 0.00 | 0.00 | 0.00 | 49 | 1013.6 |
| 20260902154923 | 32 | 154 | 4.8 | 14.5 | 0.00 | 0.00 | 0.00 | 51 | 1013.4 |
| 20260902154023 | 32 | 160 | 4.8 | 9.7 | 0.00 | 0.00 | 0.00 | 52 | 1013.5 |
| 20260902153123 | 32 | 161 | 4.8 | 12.9 | 0.00 | 0.00 | 0.00 | 53 | 1013.5 |
| 20260902152223 | 31 | 175 | 3.2 | 9.7 | 0.00 | 0.00 | 0.00 | 55 | 1013.4 |
| 20260902151323 | 31 | 122 | 4.8 | 12.9 | 0.00 | 0.00 | 0.00 | 55 | 1013.4 |
| 20260902150423 | 31 | 128 | 3.2 | 12.9 | 0.00 | 0.00 | 0.00 | 55 | 1013.3 |
| 20260902145523 | 30 | 127 | 3.2 | 8.0 | 0.00 | 0.00 | 0.00 | 56 | 1013.3 |
| 20260902144623 | 30 | 157 | 1.6 | 11.3 | 0.00 | 0.00 | 0.00 | 57 | 1013.3 |
| 20260902143723 | 30 | 154 | 3.2 | 4.8 | 0.00 | 0.00 | 0.00 | 58 | 1013.3 |
| 20260902142823 | 30 | 149 | 1.6 | 9.7 | 0.00 | 0.00 | 0.00 | 59 | 1013.3 |
| 20260902141923 | 30 | 115 | 1.6 | 9.7 | 0.00 | 0.00 | 0.00 | 59 | 1013.3 |